Location: Apeadero de Los Molinos-Guadarrama
(40.7091°N, 4.0689°W)
Time: 12:28:23
(UTC+00:00)

USA 305 - Pass Details

Date: 14 May 2021
Orbit: 567 x 573 km, 54.0° (Epoch: 07 May)

Event Time Altitude Azimuth Distance (km) Brightness Sun altitude
Rises 22:04:38 0° 305° (NW) 2,772 7.5 -23.4°
Reaches altitude 10° 22:06:58 10° 298° (WNW) 1,872 6.3 -23.7°
Enters shadow 22:10:30 39° 246° (WSW) 854 3.8 -24.0°
